Flag for Germany Weather past 2 weeks in Papenburg, Lower Saxony, Germany

Now
49 °F

Overcast.


Feels Like: 45 °F
Forecast: 43 / 49 °F
Wind: 8 mph from South

Location: Emden-Koenigspolder

Current Time: Mar 28, 2015 at 1:31:14 PM

Latest Report: Mar 28, 2015 at 1:00 PM


Visibility: 17 mi

Pressure: 29.94 "Hg

Humidity: 60%

Dew point: 35 °F

Location of PapenburgLocation

Historic Weather in Papenburg — Graph

°F

Papenburg temperature yesterday

Maximum temperature yesterday: 45 °F (at 12:00 PM)
Minimum temperature yesterday: 41 °F (at 12:00 AM)
Average temperature yesterday: 43 °F

Past Weeks' High & Low Weather Summary

 TemperatureHumidityPressure
High57 °F (Mar 17, 4:00 PM)100% (Mar 18, 3:00 AM)30.46 "Hg (Mar 18, 3:00 AM)
Low30 °F (Mar 20, 1:00 AM)42% (Mar 19, 4:00 PM)29.64 "Hg (Mar 26, 11:00 PM)
Average42 °F82%30.14 "Hg
* Reported Mar 13 12:00 Noon — Mar 28 12:00 Noon, Papenburg, Weather by CustomWeather, © 2015

Note: Actual official high and low records may vary slightly from our data, if they occured in-between our weather recording intervals... More about our weather records

Advertising

Papenburg weather history for previous 24 hours

 ConditionsComfort  
Time TempWeatherWind HumidityBarometerVisibility
12:00 PM
Sat, Mar 28
48 °FOvercast.8 mph62%29.98 "Hg12 mi
11:00 AM47 °FOvercast.7 mph70%30.02 "Hg11 mi
9:00 AM40 °FSunny.6 mph92%30.09 "Hg4 mi
8:00 AM36 °FLow clouds.5 mph100%30.11 "Hg1 mi
7:00 AM36 °FLow clouds.3 mph100%30.13 "Hg1 mi
6:00 AM38 °FFog.3 mph99%30.14 "Hg2 mi
5:00 AM37 °FFog.2 mph98%30.14 "Hg3 mi
3:00 AM40 °FOvercast.3 mph91%30.16 "Hg12 mi
2:00 AM40 °FPassing clouds.3 mph87%30.16 "Hg22 mi
1:00 AM41 °FOvercast.3 mph90%30.16 "Hg16 mi
12:00 AM42 °FOvercast.3 mph91%30.16 "Hg16 mi
11:00 PM
Fri, Mar 27
42 °FOvercast.3 mph92%30.15 "Hg12 mi
9:00 PM42 °FOvercast.5 mph85%30.13 "Hg15 mi
8:00 PM43 °FOvercast.6 mph87%30.11 "Hg12 mi
7:00 PM43 °FOvercast.6 mph86%30.08 "Hg7 mi
6:00 PM43 °FPassing clouds.8 mph82%30.05 "Hg7 mi
5:00 PM44 °FOvercast.9 mph80%30.02 "Hg6 mi
3:00 PM43 °FLight freezing rain. Low clouds.10 mph93%29.96 "Hg2 mi
2:00 PM45 °FLow clouds.8 mph87%29.92 "Hg9 mi
1:00 PM45 °FOvercast.10 mph83%29.88 "Hg22 mi
Weather by CustomWeather, © 2015

See weather overviewHow to use our weather pages